Williams, AZ

4:21 PM MST on April 26, 2018 (GMT -0700)
Williams

Weather History for KCMR - May, 2013

Change the Weather History Date:

Friday, May 10, 2013

  Actual Average (K40G) Record (K40G)
Temperature  
Mean Temperature 49 °F -  
Max Temperature 66 °F 65 °F 84 °F (2001)
Min Temperature 32 °F 56 °F 51 °F (1998)
Degree Days  
Heating Degree Days 16    
Moisture  
Dew Point 30 °F    
Average Humidity 52    
Maximum Humidity 93    
Minimum Humidity 21    
Precipitation  
Precipitation 0.00 in - - ()
Sea Level Pressure  
Sea Level Pressure 30.30 in    
Wind  
Wind Speed 7 mph (ESE)    
Max Wind Speed 21 mph    
Max Gust Speed 26 mph    
Visibility 10 miles    
Events      
Averages and records for this station are not official NWS values.
T = Trace of Precipitation, MM = Missing Value Source: NWS Daily Summary

Daily Weather History Graph

Daily Weather History Graph

Search for Another Location

Airport or City:

Astronomy

May. 10, 2013 Rise Set
Actual Time 5:28 AM MST 7:22 PM MST
Civil Twilight 5:00 AM MST 7:50 PM MST
Nautical Twilight 4:26 AM MST 8:24 PM MST
Astronomical Twilight 3:50 AM MST 9:00 PM MST
Moon 5:55 AM MST (5/10) 8:14 PM MST (5/10)
Length of Visible Light 14h 49m
Length of Day
13h 54m
New Moon, 1% of the Moon is Illuminated
May 10
New Moon
May 17
First Quarter
May 24
Full
May 31
Last Quarter
Jun 8
New

Hourly Weather History & Observations

Time (MST) Temp. Windchill Dew Point Humidity Pressure Visibility Wind Dir Wind Speed Gust Speed Precip Events Conditions
12:15 AM 35.6 °F 32.8 °F 32.0 °F 87% 30.26 in 10.0 mi SSE 3.5 mph - N/A   Clear
12:35 AM 35.6 °F - 32.0 °F 87% 30.26 in 10.0 mi Calm Calm - N/A   Clear
12:55 AM 35.6 °F 28.6 °F 32.0 °F 87% 30.26 in 10.0 mi SSE 9.2 mph - N/A   Clear
1:15 AM 35.6 °F 29.2 °F 32.0 °F 87% 30.25 in 10.0 mi SSE 8.1 mph - N/A   Clear
1:35 AM 33.8 °F 26.4 °F 32.0 °F 93% 30.25 in 10.0 mi SSE 9.2 mph - N/A   Clear
1:55 AM 35.6 °F 28.6 °F 32.0 °F 87% 30.25 in 10.0 mi SSE 9.2 mph - N/A   Clear
2:15 AM 35.6 °F 29.9 °F 32.0 °F 87% 30.25 in 10.0 mi SSE 6.9 mph - N/A   Clear
2:35 AM 32.0 °F 23.6 °F 30.2 °F 93% 30.25 in 10.0 mi SSE 10.4 mph - N/A   Clear
2:55 AM 33.8 °F 27.0 °F 32.0 °F 93% 30.25 in 10.0 mi SSE 8.1 mph - N/A   Clear
3:15 AM 33.8 °F 27.0 °F 32.0 °F 93% 30.24 in 10.0 mi SSE 8.1 mph - N/A   Clear
3:35 AM 33.8 °F - 30.2 °F 87% 30.25 in 10.0 mi Calm Calm - N/A   Clear
3:55 AM 35.6 °F - 32.0 °F 87% 30.25 in 10.0 mi Calm Calm - N/A   Clear
4:15 AM 33.8 °F 27.7 °F 30.2 °F 87% 30.25 in 10.0 mi SSE 6.9 mph - N/A   Clear
4:35 AM 35.6 °F 29.2 °F 32.0 °F 87% 30.25 in 10.0 mi SSE 8.1 mph - N/A   Clear
4:55 AM 32.0 °F 24.8 °F 28.4 °F 87% 30.24 in 10.0 mi SSE 8.1 mph - N/A   Clear
5:15 AM 32.0 °F 24.2 °F 28.4 °F 87% 30.25 in 10.0 mi SSE 9.2 mph - N/A   Clear
5:35 AM 32.0 °F 24.2 °F 28.4 °F 87% 30.25 in 10.0 mi SSE 9.2 mph - N/A   Clear
5:55 AM 33.8 °F 26.4 °F 30.2 °F 87% 30.26 in 10.0 mi SSE 9.2 mph - N/A   Clear
6:15 AM 33.8 °F 26.4 °F 30.2 °F 87% 30.27 in 10.0 mi SSE 9.2 mph - N/A   Clear
6:35 AM 37.4 °F 31.4 °F 32.0 °F 81% 30.27 in 10.0 mi SSE 8.1 mph - N/A   Clear
6:55 AM 41.0 °F 37.1 °F 32.0 °F 70% 30.28 in 10.0 mi SSE 5.8 mph - N/A   Clear
7:15 AM 44.6 °F - 32.0 °F 61% 30.29 in 10.0 mi Calm Calm - N/A   Clear
7:35 AM 50.0 °F - 32.0 °F 50% 30.29 in 10.0 mi SE 4.6 mph - N/A   Clear
7:55 AM 51.8 °F - 32.0 °F 47% 30.29 in 10.0 mi Calm Calm - N/A   Clear
8:15 AM 53.6 °F - 32.0 °F 44% 30.29 in 10.0 mi Calm Calm - N/A   Clear
8:35 AM 55.4 °F - 32.0 °F 41% 30.30 in 10.0 mi ENE 4.6 mph - N/A   Clear
8:55 AM 57.2 °F - 30.2 °F 36% 30.30 in 10.0 mi SE 5.8 mph - N/A   Clear
9:15 AM 57.2 °F - 28.4 °F 33% 30.30 in 10.0 mi Calm Calm - N/A   Clear
9:35 AM 57.2 °F - 28.4 °F 33% 30.30 in 10.0 mi Calm Calm - N/A   Partly Cloudy
9:55 AM 57.2 °F - 26.6 °F 31% 30.30 in 10.0 mi SSW 3.5 mph - N/A   Scattered Clouds
10:15 AM 57.2 °F - 26.6 °F 31% 30.30 in 10.0 mi West 6.9 mph - N/A   Mostly Cloudy
10:35 AM 57.2 °F - 26.6 °F 31% 30.31 in 10.0 mi SSW 4.6 mph - N/A   Mostly Cloudy
10:55 AM 60.8 °F - 26.6 °F 27% 30.31 in 10.0 mi Calm Calm - N/A   Mostly Cloudy
11:15 AM 60.8 °F - 26.6 °F 27% 30.31 in 10.0 mi Calm Calm - N/A   Mostly Cloudy
11:35 AM 59.0 °F - 26.6 °F 29% 30.31 in 10.0 mi North 9.2 mph - N/A   Mostly Cloudy
11:55 AM 59.0 °F - 30.2 °F 34% 30.31 in 10.0 mi NW 11.5 mph - N/A   Mostly Cloudy
12:15 PM 59.0 °F - 32.0 °F 36% 30.31 in 10.0 mi NE 15.0 mph - N/A   Mostly Cloudy
12:35 PM 57.2 °F - 32.0 °F 38% 30.31 in 10.0 mi East 13.8 mph - N/A   Mostly Cloudy
12:55 PM 59.0 °F - 32.0 °F 36% 30.31 in 10.0 mi SSW 11.5 mph 17.3 mph N/A   Partly Cloudy
1:15 PM 62.6 °F - 30.2 °F 30% 30.30 in 10.0 mi West 4.6 mph - N/A   Clear
1:35 PM 62.6 °F - 28.4 °F 27% 30.30 in 10.0 mi East 5.8 mph - N/A   Clear
1:55 PM 62.6 °F - 26.6 °F 26% 30.29 in 10.0 mi NNE 5.8 mph - N/A   Partly Cloudy
2:15 PM 60.8 °F - 26.6 °F 27% 30.29 in 10.0 mi East 6.9 mph - N/A   Scattered Clouds
2:35 PM 64.4 °F - 28.4 °F 26% 30.28 in 10.0 mi NW 5.8 mph - N/A   Scattered Clouds
2:55 PM 64.4 °F - 30.2 °F 28% 30.28 in 10.0 mi WSW 4.6 mph - N/A   Partly Cloudy
3:15 PM 66.2 °F - 28.4 °F 24% 30.27 in 10.0 mi NW 10.4 mph - N/A   Scattered Clouds
3:35 PM 64.4 °F - 26.6 °F 24% 30.27 in 10.0 mi NNW 6.9 mph - N/A   Mostly Cloudy
3:55 PM 66.2 °F - 24.8 °F 21% 30.26 in 10.0 mi North 4.6 mph - N/A   Scattered Clouds
4:15 PM 66.2 °F - 26.6 °F 23% 30.26 in 10.0 mi NNW 17.3 mph - N/A   Scattered Clouds
4:35 PM 64.4 °F - 32.0 °F 30% 30.27 in 10.0 mi NW 18.4 mph 21.9 mph N/A   Partly Cloudy
4:55 PM 60.8 °F - 32.0 °F 34% 30.29 in 10.0 mi North 18.4 mph 24.2 mph N/A   Partly Cloudy
5:15 PM 59.0 °F - 32.0 °F 36% 30.29 in 10.0 mi NNW 12.7 mph 21.9 mph N/A   Clear
5:35 PM 59.0 °F - 32.0 °F 36% 30.29 in 10.0 mi North 11.5 mph 16.1 mph N/A   Clear
5:55 PM 57.2 °F - 32.0 °F 38% 30.29 in 10.0 mi NNW 10.4 mph - N/A   Clear
6:15 PM 57.2 °F - 32.0 °F 38% 30.30 in 10.0 mi NNW 8.1 mph - N/A   Clear
6:35 PM 57.2 °F - 32.0 °F 38% 30.31 in 10.0 mi North 6.9 mph - N/A   Clear
6:55 PM 55.4 °F - 32.0 °F 41% 30.31 in 10.0 mi North 5.8 mph - N/A   Clear
7:15 PM 55.4 °F - 32.0 °F 41% 30.32 in 10.0 mi NNW 4.6 mph - N/A   Clear
7:35 PM 53.6 °F - 32.0 °F 44% 30.33 in 10.0 mi Calm Calm - N/A   Clear
7:55 PM 51.8 °F - 32.0 °F 47% 30.34 in 10.0 mi Calm Calm - N/A   Clear
8:15 PM 50.0 °F - 32.0 °F 50% 30.34 in 10.0 mi South 4.6 mph - N/A   Unknown
8:35 PM 48.2 °F - 32.0 °F 54% 30.35 in 10.0 mi SSE 3.5 mph - N/A   Unknown
8:55 PM 48.2 °F - 32.0 °F 54% 30.36 in 10.0 mi SSE 6.9 mph - N/A   Clear
9:15 PM 51.8 °F - 30.2 °F 44% 30.37 in 10.0 mi ENE 8.1 mph - N/A   Partly Cloudy
9:35 PM 55.4 °F - 30.2 °F 38% 30.37 in 10.0 mi East 9.2 mph - N/A   Clear
9:55 PM 53.6 °F - 32.0 °F 44% 30.38 in 10.0 mi East 11.5 mph - N/A   Clear
10:15 PM 53.6 °F - 32.0 °F 44% 30.39 in 10.0 mi East 15.0 mph 26.5 mph N/A   Clear
10:35 PM 53.6 °F - 32.0 °F 44% 30.38 in 10.0 mi East 20.7 mph 25.3 mph N/A   Partly Cloudy
10:55 PM 53.6 °F - 30.2 °F 41% 30.39 in 10.0 mi ESE 8.1 mph - N/A   Partly Cloudy
11:15 PM 51.8 °F - 30.2 °F 44% 30.40 in 10.0 mi NE 11.5 mph - N/A   Clear
11:55 PM 50.0 °F - 32.0 °F 50% 30.43 in 10.0 mi NE 12.7 mph 21.9 mph N/A   Clear